Weather History for Oujda, Morocco

Change the Weather History Date:

Thursday, July 3, 2014

  Actual Average Record
Temperature  
Mean Temperature 70 °F -  
Max Temperature 82 °F 90 °F 107 °F (1999)
Min Temperature 57 °F 64 °F 57 °F (1997)
Cooling Degree Days 4    
Growing Degree Days 20 (Base 50)    
Moisture  
Dew Point 52 °F    
Average Humidity 53    
Maximum Humidity 77    
Minimum Humidity 29    
Precipitation  
Precipitation 0.00 in 0.00 in - ()
Sea Level Pressure  
Sea Level Pressure 30.02 in    
Wind  
Wind Speed 5 mph ()    
Max Wind Speed 17 mph    
Max Gust Speed -    
Visibility 8.4 miles    
Events      
Averages and records for this station are not official NWS values.
T = Trace of Precipitation, MM = Missing Value Source: Averaged Metar Reports

Daily Weather History Graph

Daily Weather History Graph

Search for Another Location

Airport:

Trip Planner

Search our weather history database for the weather conditions in past years. The results will help you decide how hot, cold, wet, or windy it might be!

Date:

Astronomy

Jul. 03, 2014 Rise Set
Actual Time 5:58 AM WEST 8:24 PM WEST
Civil Twilight 5:29 AM WEST 8:54 PM WEST
Nautical Twilight 4:53 AM WEST 9:30 PM WEST
Astronomical Twilight 4:13 AM WEST 10:10 PM WEST
Moon 11:30 AM WEST (7/3) 11:55 PM WEST (7/3)
Length of Visible Light 15h 24m
Length of Day
14h 26m
Waxing Crescent, 31% of the Moon is Illuminated
Jul 3
Waxing Crescent
Jul 5
First Quarter
Jul 12
Full
Jul 19
Last Quarter
Jul 26
New

Hourly Weather History & Observations

Time (WEST) Temp. Heat Index Dew Point Humidity Pressure Visibility Wind Dir Wind Speed Gust Speed Precip Events Conditions
12:00 AM 64.4 °F - 51.8 °F 64% 30.04 in 6.2 mi Variable 2.3 mph - N/A   Scattered Clouds
1:00 AM 63 °F - 52 °F 59% 30.01 in 9 mi NNW 1.2 mph - -   Scattered Clouds
1:00 AM 62.6 °F - 51.8 °F 68% 30.04 in 6.2 mi NNW 1.2 mph - N/A   Partly Cloudy
5:00 AM 57.2 °F - 50.0 °F 77% 30.04 in - SW 4.6 mph - N/A   Clear
6:00 AM 57.2 °F - 50.0 °F 77% 30.01 in - SW 4.6 mph - N/A   Clear
7:00 AM 59 °F - 50 °F 65% 30.01 in 9 mi WSW 4.6 mph - -  
7:00 AM 59.0 °F - 50.0 °F 72% 30.04 in - WSW 4.6 mph - N/A   Clear
9:00 AM 69.8 °F - 53.6 °F 56% 30.04 in - Variable 2.3 mph - N/A   Clear
10:00 AM 72 °F - 53 °F 41% 30.00 in 9 mi ENE 3.5 mph - -  
10:00 AM 73.4 °F - 53.6 °F 50% 30.04 in - NE 3.5 mph - N/A   Clear
11:00 AM 75.2 °F - 53.6 °F 47% 30.04 in - Variable 4.6 mph - N/A   Clear
1:00 PM 80 °F - 53 °F 29% 29.95 in 16 mi NE 4.6 mph - -   Scattered Clouds
1:00 PM 80.6 °F 80.3 °F 53.6 °F 39% 30.04 in 6.2 mi Variable 3.5 mph - N/A   Partly Cloudy
2:00 PM 82.4 °F 81.4 °F 53.6 °F 37% 30.01 in 6.2 mi North 17.3 mph - N/A   Partly Cloudy
3:00 PM 80.6 °F 80.3 °F 53.6 °F 39% 30.01 in 6.2 mi North 15.0 mph - N/A   Partly Cloudy
3:47 PM 80 °F - 55 °F 31% 29.94 in 16 mi North 17.3 mph - -   Scattered Clouds
5:00 PM 78.8 °F - 53.6 °F 42% 30.01 in 6.2 mi North 17.3 mph - N/A   Partly Cloudy
7:00 PM 73.4 °F - 53.6 °F 50% 30.01 in 6.2 mi North 17.3 mph - N/A   Partly Cloudy
8:00 PM 69.8 °F - 51.8 °F 53% 30.04 in 6.2 mi North 16.1 mph - N/A   Partly Cloudy
9:00 PM 69.8 °F - 51.8 °F 53% 30.04 in 6.2 mi North 11.5 mph - N/A   Partly Cloudy
9:47 PM 67 °F - 53 °F 50% 30.03 in 16 mi NNE 4.6 mph - -   Scattered Clouds
10:00 PM 68.0 °F - 51.8 °F 56% 30.06 in 6.2 mi NNE 4.6 mph - N/A   Partly Cloudy
11:00 PM 66.2 °F - 51.8 °F 60% 30.09 in 6.2 mi NE 3.5 mph - N/A   Partly Cloudy